Time,TemperatureF,DewpointF,PressureIn,WindDirection,WindDirectionDegrees,WindSpeedMPH,WindSpeedGustMPH,Humidity,HourlyPrecipIn,Conditions,Clouds,dailyrainin,SoftwareType,DateUTC
2013-02-16 00:00:00,47.5,28.8,29.85,NNE,22,2.9,2.9,48,0.00,,OVC090,0.00,VWS V14.01,2013-02-16 05:00:00,
2013-02-16 00:02:00,47.5,28.8,29.85,North,0,3.1,3.1,48,0.00,,OVC090,0.00,VWS V14.01,2013-02-16 05:02:00,
2013-02-16 00:07:00,47.5,28.8,29.85,NNW,338,1.6,1.6,48,0.00,,OVC090,0.00,VWS V14.01,2013-02-16 05:07:00,
2013-02-16 00:12:00,47.3,28.6,29.85,North,0,3.4,3.4,48,0.00,,OVC090,0.00,VWS V14.01,2013-02-16 05:12:00,
2013-02-16 00:17:00,47.1,28.5,29.85,North,0,4.0,4.0,48,0.00,,OVC090,0.00,VWS V14.01,2013-02-16 05:17:00,
2013-02-16 00:22:00,46.9,28.3,29.85,NW,315,2.0,2.0,48,0.00,,OVC090,0.00,VWS V14.01,2013-02-16 05:22:00,
2013-02-16 00:23:00,46.9,28.3,29.85,NNW,338,2.0,2.0,48,0.00,,OVC090,0.00,VWS V14.01,2013-02-16 05:23:00,
2013-02-16 00:29:00,46.8,28.1,29.85,NNW,338,3.4,3.4,48,0.00,,OVC090,0.00,VWS V14.01,2013-02-16 05:29:00,
2013-02-16 00:34:00,46.4,27.8,29.85,NNW,338,2.2,2.2,48,0.00,,OVC090,0.00,VWS V14.01,2013-02-16 05:34:00,
2013-02-16 00:39:00,46.2,28.1,29.85,North,0,3.1,3.1,49,0.00,,CLR,0.00,VWS V14.01,2013-02-16 05:39:00,
2013-02-16 00:44:00,46.2,28.1,29.85,NNE,22,3.4,3.4,49,0.00,,CLR,0.00,VWS V14.01,2013-02-16 05:44:00,
2013-02-16 00:49:00,46.2,28.1,29.85,North,0,3.1,3.1,49,0.00,,CLR,0.00,VWS V14.01,2013-02-16 05:49:00,
2013-02-16 00:54:00,46.4,27.8,29.85,NNE,22,3.1,3.1,48,0.00,,CLR,0.00,VWS V14.01,2013-02-16 05:54:00,
2013-02-16 00:59:00,46.4,27.8,29.85,NNE,22,3.1,3.1,48,0.00,,CLR,0.00,VWS V14.01,2013-02-16 05:59:00,
2013-02-16 01:04:00,46.4,27.8,29.85,NE,45,2.7,2.7,48,0.00,,CLR,0.00,VWS V14.01,2013-02-16 06:04:00,
2013-02-16 01:09:00,46.2,28.1,29.85,NNE,22,3.6,3.6,49,0.00,,CLR,0.00,VWS V14.01,2013-02-16 06:09:00,
2013-02-16 01:14:00,46.2,28.1,29.85,North,0,3.4,3.4,49,0.00,,CLR,0.00,VWS V14.01,2013-02-16 06:14:00,
2013-02-16 01:19:00,46.0,28.0,29.85,NNE,22,2.5,2.5,49,0.00,,CLR,0.00,VWS V14.01,2013-02-16 06:19:00,
2013-02-16 01:24:00,45.7,27.6,29.82,NNE,22,2.5,2.5,49,0.00,,CLR,0.00,VWS V14.01,2013-02-16 06:24:00,
2013-02-16 01:30:00,45.3,27.3,29.82,NNE,22,3.1,3.1,49,0.00,,CLR,0.00,VWS V14.01,2013-02-16 06:30:00,
2013-02-16 01:35:00,45.1,27.1,29.82,North,0,4.3,4.3,49,0.00,,CLR,0.00,VWS V14.01,2013-02-16 06:35:00,
2013-02-16 01:40:00,44.8,26.8,29.85,North,0,6.5,6.5,49,0.00,,FEW090,0.00,VWS V14.01,2013-02-16 06:40:00,
2013-02-16 01:45:00,45.0,27.0,29.85,NNE,22,4.3,4.3,49,0.00,,FEW090,0.00,VWS V14.01,2013-02-16 06:45:00,
2013-02-16 01:50:00,44.8,26.8,29.85,NE,45,6.0,6.0,49,0.00,,FEW090,0.00,VWS V14.01,2013-02-16 06:50:00,
2013-02-16 01:55:00,44.6,26.6,29.85,North,0,4.7,4.7,49,0.00,,FEW090,0.00,VWS V14.01,2013-02-16 06:55:00,
2013-02-16 02:00:00,44.4,26.5,29.85,NNE,22,4.9,4.9,49,0.00,,FEW090,0.00,VWS V14.01,2013-02-16 07:00:00,
2013-02-16 02:05:00,44.2,26.3,29.85,NNE,22,6.0,6.0,49,0.00,,FEW090,0.00,VWS V14.01,2013-02-16 07:05:00,
2013-02-16 02:10:00,44.2,26.3,29.85,NE,45,4.9,4.9,49,0.00,,FEW090,0.00,VWS V14.01,2013-02-16 07:10:00,
2013-02-16 02:15:00,43.9,26.0,29.85,NNE,22,4.7,4.7,49,0.00,,FEW090,0.00,VWS V14.01,2013-02-16 07:15:00,
2013-02-16 02:20:00,43.7,25.8,29.85,NE,45,3.8,3.8,49,0.00,,FEW090,0.00,VWS V14.01,2013-02-16 07:20:00,
2013-02-16 02:25:00,43.5,25.6,29.85,NE,45,5.8,5.8,49,0.00,,FEW090,0.00,VWS V14.01,2013-02-16 07:25:00,
2013-02-16 02:30:00,43.5,25.6,29.85,NE,45,3.4,3.4,49,0.00,,FEW090,0.00,VWS V14.01,2013-02-16 07:30:00,
2013-02-16 02:35:00,43.3,25.5,29.85,NNE,22,4.9,4.9,49,0.00,,FEW090,0.00,VWS V14.01,2013-02-16 07:35:00,
2013-02-16 02:40:00,43.5,25.6,29.85,NNE,22,7.8,7.8,49,0.00,,FEW090,0.00,VWS V14.01,2013-02-16 07:40:00,
2013-02-16 02:45:00,43.5,25.6,29.85,NNE,22,5.6,5.6,49,0.00,,SCT095,0.00,VWS V14.01,2013-02-16 07:45:00,
2013-02-16 02:50:00,43.3,25.5,29.85,NE,45,5.8,5.8,49,0.00,,SCT095,0.00,VWS V14.01,2013-02-16 07:50:00,
2013-02-16 02:55:00,43.3,25.5,29.85,NNE,22,6.9,6.9,49,0.00,,SCT095,0.00,VWS V14.01,2013-02-16 07:55:00,
2013-02-16 03:00:00,43.3,25.5,29.85,NE,45,4.3,4.3,49,0.00,,SCT095,0.00,VWS V14.01,2013-02-16 08:00:00,
2013-02-16 03:05:00,43.3,25.5,29.85,NE,45,5.4,5.4,49,0.00,,SCT095,0.00,VWS V14.01,2013-02-16 08:05:00,
2013-02-16 03:10:00,43.2,25.3,29.85,ENE,68,5.8,5.8,49,0.00,,SCT095,0.00,VWS V14.01,2013-02-16 08:10:00,
2013-02-16 03:15:00,43.2,25.3,29.85,ENE,68,5.8,5.8,49,0.00,,SCT095,0.00,VWS V14.01,2013-02-16 08:15:00,
2013-02-16 03:20:00,43.0,25.1,29.85,NE,45,4.3,4.3,49,0.00,,SCT095,0.00,VWS V14.01,2013-02-16 08:20:00,
2013-02-16 03:25:00,43.0,25.1,29.88,NE,45,3.6,3.6,49,0.00,,SCT095,0.00,VWS V14.01,2013-02-16 08:25:00,
2013-02-16 03:30:00,43.0,25.1,29.88,NNE,22,7.2,7.2,49,0.00,,SCT095,0.00,VWS V14.01,2013-02-16 08:30:00,
2013-02-16 03:35:00,43.0,25.1,29.85,NNE,22,5.6,5.6,49,0.00,,SCT095,0.00,VWS V14.01,2013-02-16 08:35:00,
2013-02-16 03:40:00,42.8,25.0,29.85,NNE,22,3.8,3.8,49,0.00,,OVC100,0.00,VWS V14.01,2013-02-16 08:40:00,
2013-02-16 03:45:00,42.8,25.0,29.85,NE,45,6.0,6.0,49,0.00,,OVC100,0.00,VWS V14.01,2013-02-16 08:45:00,
2013-02-16 03:50:00,42.6,25.3,29.85,NE,45,7.8,7.8,50,0.00,,OVC100,0.00,VWS V14.01,2013-02-16 08:50:00,
2013-02-16 03:55:00,42.6,25.3,29.85,NNE,22,6.5,6.5,50,0.00,,OVC100,0.00,VWS V14.01,2013-02-16 08:55:00,
2013-02-16 04:00:00,42.4,25.1,29.85,NNE,22,4.9,4.9,50,0.00,,OVC100,0.00,VWS V14.01,2013-02-16 09:00:00,
2013-02-16 04:06:00,42.4,25.1,29.85,North,0,4.0,4.0,50,0.00,,OVC100,0.00,VWS V14.01,2013-02-16 09:06:00,
2013-02-16 04:11:00,42.4,25.1,29.85,NE,45,6.3,6.3,50,0.00,,OVC100,0.00,VWS V14.01,2013-02-16 09:11:00,
2013-02-16 04:16:00,42.4,25.1,29.85,NNE,22,4.0,4.0,50,0.00,,OVC100,0.00,VWS V14.01,2013-02-16 09:16:00,
2013-02-16 04:21:00,42.4,25.1,29.85,NNE,22,4.3,4.3,50,0.00,,OVC100,0.00,VWS V14.01,2013-02-16 09:21:00,
2013-02-16 04:26:00,42.3,25.0,29.85,North,0,3.4,3.4,50,0.00,,OVC100,0.00,VWS V14.01,2013-02-16 09:26:00,
2013-02-16 04:31:00,42.3,25.0,29.85,NE,45,3.8,3.8,50,0.00,,OVC100,0.00,VWS V14.01,2013-02-16 09:31:00,
2013-02-16 04:36:00,42.3,25.0,29.85,North,0,3.4,3.4,50,0.00,,OVC100,0.00,VWS V14.01,2013-02-16 09:36:00,
2013-02-16 04:41:00,42.3,25.0,29.85,NNW,338,5.4,5.4,50,0.00,,OVC110,0.00,VWS V14.01,2013-02-16 09:41:00,
2013-02-16 04:46:00,42.3,25.0,29.85,NNE,22,3.1,3.1,50,0.00,,OVC110,0.00,VWS V14.01,2013-02-16 09:46:00,
2013-02-16 04:51:00,42.3,25.0,29.85,NNE,22,2.9,2.9,50,0.00,,OVC110,0.00,VWS V14.01,2013-02-16 09:51:00,
2013-02-16 04:56:00,42.3,25.0,29.85,North,0,5.8,5.8,50,0.00,,OVC110,0.00,VWS V14.01,2013-02-16 09:56:00,
2013-02-16 05:01:00,42.3,25.0,29.85,North,0,4.9,4.9,50,0.00,,OVC110,0.00,VWS V14.01,2013-02-16 10:01:00,
2013-02-16 05:07:00,42.3,25.0,29.85,North,0,2.9,2.9,50,0.00,,OVC110,0.00,VWS V14.01,2013-02-16 10:07:00,
2013-02-16 05:12:00,42.1,24.8,29.85,NNE,22,8.1,8.1,50,0.00,,OVC110,0.00,VWS V14.01,2013-02-16 10:12:00,
2013-02-16 05:17:00,42.3,25.0,29.85,NNW,338,2.9,2.9,50,0.00,,OVC110,0.00,VWS V14.01,2013-02-16 10:17:00,
2013-02-16 05:22:00,42.3,25.0,29.85,North,0,3.4,3.4,50,0.00,,OVC110,0.00,VWS V14.01,2013-02-16 10:22:00,
2013-02-16 05:27:00,42.1,24.8,29.85,NNE,22,3.4,3.4,50,0.00,,OVC110,0.00,VWS V14.01,2013-02-16 10:27:00,
2013-02-16 05:32:00,42.1,24.8,29.85,NNE,22,3.4,3.4,50,0.00,,OVC110,0.00,VWS V14.01,2013-02-16 10:32:00,
2013-02-16 05:37:00,42.1,24.8,29.82,NNE,22,4.0,4.0,50,0.00,,OVC055,0.00,VWS V14.01,2013-02-16 10:37:00,
2013-02-16 05:42:00,41.9,24.6,29.82,NNE,22,3.1,3.1,50,0.00,,OVC055,0.00,VWS V14.01,2013-02-16 10:42:00,
2013-02-16 05:47:00,41.7,24.5,29.82,NE,45,6.0,6.0,50,0.00,,OVC055,0.00,VWS V14.01,2013-02-16 10:47:00,
2013-02-16 05:52:00,41.7,24.5,29.88,NNE,22,5.8,5.8,50,0.00,,OVC055,0.00,VWS V14.01,2013-02-16 10:52:00,
2013-02-16 05:57:00,41.4,24.1,29.88,NNE,22,4.0,4.0,50,0.00,,OVC055,0.00,VWS V14.01,2013-02-16 10:57:00,
2013-02-16 06:03:00,41.2,24.0,29.88,NE,45,5.6,5.6,50,0.00,,OVC055,0.00,VWS V14.01,2013-02-16 11:03:00,
2013-02-16 06:08:00,41.0,23.8,29.85,NNE,22,4.3,4.3,50,0.00,,OVC055,0.00,VWS V14.01,2013-02-16 11:08:00,
2013-02-16 06:13:00,40.6,23.5,29.85,NNE,22,6.5,6.5,50,0.00,,OVC055,0.00,VWS V14.01,2013-02-16 11:13:00,
2013-02-16 06:18:00,40.6,23.5,29.85,NNE,22,5.4,5.4,50,0.00,,OVC055,0.00,VWS V14.01,2013-02-16 11:18:00,
2013-02-16 06:23:00,40.5,23.8,29.85,NNE,22,7.4,7.4,51,0.00,,OVC055,0.00,VWS V14.01,2013-02-16 11:23:00,
2013-02-16 06:28:00,40.5,24.7,29.85,North,0,4.3,4.3,53,0.00,,OVC055,0.00,VWS V14.01,2013-02-16 11:28:00,
2013-02-16 06:33:00,40.3,23.1,29.85,WNW,292,5.6,5.6,50,0.00,,OVC055,0.00,VWS V14.01,2013-02-16 11:33:00,
2013-02-16 06:38:00,40.1,23.0,29.85,WNW,292,5.8,5.8,50,0.00,,-RA,0.00,VWS V14.01,2013-02-16 11:38:00,
2013-02-16 06:43:00,39.9,22.8,29.85,NNE,22,4.7,4.7,50,0.00,,-RA,0.00,VWS V14.01,2013-02-16 11:43:00,
2013-02-16 06:48:00,39.2,23.5,29.85,NNE,22,5.4,5.4,53,0.00,,-RA,0.00,VWS V14.01,2013-02-16 11:48:00,
2013-02-16 06:53:00,38.5,28.1,29.85,North,0,4.0,4.0,66,0.00,,-RA,0.00,VWS V14.01,2013-02-16 11:53:00,
2013-02-16 06:58:00,37.6,29.4,29.85,NNE,22,5.8,5.8,72,0.00,,-RA,0.00,VWS V14.01,2013-02-16 11:58:00,
2013-02-16 07:03:00,37.0,30.2,29.85,NNE,22,6.9,6.9,76,0.00,,-RA,0.00,VWS V14.01,2013-02-16 12:03:00,
2013-02-16 07:08:00,36.7,30.5,29.85,NNE,22,2.5,2.5,78,0.00,,-RA,0.00,VWS V14.01,2013-02-16 12:08:00,
2013-02-16 07:13:00,36.1,30.6,29.85,NNE,22,5.8,5.8,80,0.00,,-RA,0.00,VWS V14.01,2013-02-16 12:13:00,
2013-02-16 07:18:00,35.8,30.5,29.85,North,0,4.3,4.3,81,0.00,,-RA,0.00,VWS V14.01,2013-02-16 12:18:00,
2013-02-16 07:23:00,35.4,30.2,29.82,NNW,338,3.1,3.1,81,0.00,,-RA,0.00,VWS V14.01,2013-02-16 12:23:00,
2013-02-16 07:28:00,35.1,29.8,29.82,North,0,2.9,2.9,81,0.00,,-RA,0.00,VWS V14.01,2013-02-16 12:28:00,
2013-02-16 07:33:00,35.1,29.8,29.82,NNW,338,0.9,0.9,81,0.04,,-RA,0.04,VWS V14.01,2013-02-16 12:33:00,
2013-02-16 07:38:00,34.9,30.0,29.85,NNE,22,3.4,3.4,82,0.04,,-RA,0.04,VWS V14.01,2013-02-16 12:38:00,
2013-02-16 07:43:00,35.1,30.4,29.85,NNE,22,4.0,4.0,83,0.04,,-RA,0.04,VWS V14.01,2013-02-16 12:43:00,
2013-02-16 07:48:00,35.1,30.4,29.85,NNE,22,2.5,2.5,83,0.04,,-RA,0.04,VWS V14.01,2013-02-16 12:48:00,
2013-02-16 07:53:00,35.1,30.7,29.85,North,0,4.9,4.9,84,0.04,,-RA,0.04,VWS V14.01,2013-02-16 12:53:00,
2013-02-16 07:58:00,35.1,31.0,29.85,NNE,22,3.6,3.6,85,0.04,,-RA,0.04,VWS V14.01,2013-02-16 12:58:00,
2013-02-16 08:03:00,34.9,31.4,29.85,NNE,22,2.5,2.5,87,0.04,,-RA,0.04,VWS V14.01,2013-02-16 13:03:00,
2013-02-16 08:08:00,34.7,31.2,29.82,NNE,22,2.2,2.2,87,0.04,,-RA,0.04,VWS V14.01,2013-02-16 13:08:00,
2013-02-16 08:13:00,34.7,31.8,29.82,NNE,22,3.8,3.8,89,0.04,,-RA,0.04,VWS V14.01,2013-02-16 13:13:00,
2013-02-16 08:18:00,34.9,32.2,29.82,NNE,22,2.5,2.5,90,0.04,,-RA,0.04,VWS V14.01,2013-02-16 13:18:00,
2013-02-16 08:23:00,35.1,32.7,29.85,NNE,22,3.1,3.1,91,0.04,,-RA,0.04,VWS V14.01,2013-02-16 13:23:00,
2013-02-16 08:28:00,35.4,33.3,29.85,North,0,3.8,3.8,92,0.04,,-RA,0.04,VWS V14.01,2013-02-16 13:28:00,
2013-02-16 08:33:00,35.4,33.6,29.85,NNE,22,4.3,4.3,93,0.04,,-RA,0.04,VWS V14.01,2013-02-16 13:33:00,
2013-02-16 08:38:00,35.4,33.9,29.88,NNE,22,3.1,3.1,94,0.00,,-RA,0.04,VWS V14.01,2013-02-16 13:38:00,
2013-02-16 08:43:00,35.4,34.1,29.88,NE,45,7.4,7.4,95,0.00,,-RA,0.04,VWS V14.01,2013-02-16 13:43:00,
2013-02-16 08:48:00,35.2,34.2,29.88,NNE,22,5.4,5.4,96,0.00,,-RA,0.04,VWS V14.01,2013-02-16 13:48:00,
2013-02-16 08:53:00,35.2,34.5,29.85,NNE,22,5.6,5.6,97,0.00,,-RA,0.04,VWS V14.01,2013-02-16 13:53:00,
2013-02-16 08:58:00,35.1,34.5,29.85,NNE,22,4.3,4.3,98,0.00,,-RA,0.04,VWS V14.01,2013-02-16 13:58:00,
2013-02-16 09:03:00,35.1,34.5,29.85,North,0,6.5,6.5,98,0.00,,-RA,0.04,VWS V14.01,2013-02-16 14:03:00,
2013-02-16 09:08:00,35.1,34.8,29.85,NE,45,4.3,4.3,99,0.00,,-RA,0.04,VWS V14.01,2013-02-16 14:08:00,
2013-02-16 09:13:00,35.1,34.8,29.85,NNE,22,2.9,2.9,99,0.00,,-RA,0.04,VWS V14.01,2013-02-16 14:13:00,
2013-02-16 09:18:00,35.1,35.1,29.85,NNE,22,2.9,2.9,100,0.00,,-RA,0.04,VWS V14.01,2013-02-16 14:18:00,
2013-02-16 09:23:00,35.1,35.1,29.85,North,0,3.1,3.1,100,0.00,,-RA,0.04,VWS V14.01,2013-02-16 14:23:00,
2013-02-16 09:28:00,35.1,35.1,29.85,North,0,2.5,2.5,100,0.00,,-RA,0.04,VWS V14.01,2013-02-16 14:28:00,
2013-02-16 09:33:00,35.1,35.1,29.85,NNW,338,2.0,2.0,100,0.00,,,0.04,VWS V14.01,2013-02-16 14:33:00,
2013-02-16 09:38:00,35.1,35.1,29.85,NNW,338,4.0,4.0,100,0.00,,,0.04,VWS V14.01,2013-02-16 14:38:00,
2013-02-16 09:43:00,34.9,34.9,29.85,NNE,22,3.6,3.6,100,0.00,,,0.04,VWS V14.01,2013-02-16 14:43:00,
2013-02-16 09:49:00,34.9,34.9,29.85,North,0,3.1,3.1,100,0.04,,,0.08,VWS V14.01,2013-02-16 14:49:00,
2013-02-16 09:54:00,34.9,34.9,29.85,North,0,5.6,5.6,100,0.04,,,0.08,VWS V14.01,2013-02-16 14:54:00,
2013-02-16 09:59:00,34.7,34.7,29.85,NNE,22,4.3,4.3,100,0.04,,,0.08,VWS V14.01,2013-02-16 14:59:00,
2013-02-16 10:04:00,34.7,34.7,29.85,NNE,22,3.4,3.4,100,0.00,,,0.04,VWS V14.01,2013-02-16 15:04:00,
2013-02-16 10:09:00,34.5,34.5,29.85,NNE,22,3.1,3.1,100,0.04,,,0.08,VWS V14.01,2013-02-16 15:09:00,
2013-02-16 10:14:00,34.5,34.5,29.85,North,0,2.5,2.5,100,0.04,,,0.08,VWS V14.01,2013-02-16 15:14:00,
2013-02-16 10:19:00,34.5,34.5,29.85,NNE,22,4.3,4.3,100,0.04,,,0.08,VWS V14.01,2013-02-16 15:19:00,
2013-02-16 10:24:00,34.5,34.5,29.85,NNE,22,2.0,2.0,100,0.04,,,0.08,VWS V14.01,2013-02-16 15:24:00,
2013-02-16 10:29:00,34.5,34.5,29.85,NNE,22,3.6,3.6,100,0.04,,,0.08,VWS V14.01,2013-02-16 15:29:00,
2013-02-16 10:34:00,34.5,34.5,29.85,ENE,68,2.5,2.5,100,0.04,,,0.08,VWS V14.01,2013-02-16 15:34:00,
2013-02-16 10:39:00,34.5,34.5,29.85,North,0,1.1,1.1,100,0.04,,,0.08,VWS V14.01,2013-02-16 15:39:00,
2013-02-16 10:44:00,34.5,34.5,29.85,NNE,22,2.5,2.5,100,0.04,,,0.08,VWS V14.01,2013-02-16 15:44:00,
2013-02-16 10:49:00,34.7,34.7,29.85,NE,45,2.7,2.7,100,0.04,,,0.08,VWS V14.01,2013-02-16 15:49:00,
2013-02-16 10:54:00,34.9,34.9,29.85,NNE,22,3.6,3.6,100,0.00,,,0.08,VWS V14.01,2013-02-16 15:54:00,
2013-02-16 10:59:00,35.1,35.1,29.85,NNE,22,4.0,4.0,100,0.00,,,0.08,VWS V14.01,2013-02-16 15:59:00,
2013-02-16 11:04:00,35.2,35.2,29.85,NE,45,2.7,2.7,100,0.04,,,0.08,VWS V14.01,2013-02-16 16:04:00,
2013-02-16 11:09:00,35.4,35.4,29.82,NNE,22,3.8,3.8,100,0.00,,,0.08,VWS V14.01,2013-02-16 16:09:00,
2013-02-16 11:14:00,35.6,35.6,29.82,North,0,1.3,1.3,100,0.00,,,0.08,VWS V14.01,2013-02-16 16:14:00,
2013-02-16 11:19:00,35.6,35.6,29.82,North,0,2.7,2.7,100,0.00,,,0.08,VWS V14.01,2013-02-16 16:19:00,
2013-02-16 11:24:00,35.6,35.6,29.82,ENE,68,2.2,2.2,100,0.00,,,0.08,VWS V14.01,2013-02-16 16:24:00,
2013-02-16 11:29:00,35.8,35.8,29.82,NNE,22,2.9,2.9,100,0.00,,,0.08,VWS V14.01,2013-02-16 16:29:00,
2013-02-16 11:34:00,35.8,35.8,29.82,NNE,22,2.9,2.9,100,0.00,,,0.08,VWS V14.01,2013-02-16 16:34:00,
2013-02-16 11:39:00,36.0,36.0,29.85,NNW,338,2.7,2.7,100,0.00,,,0.08,VWS V14.01,2013-02-16 16:39:00,
2013-02-16 11:44:00,36.0,36.0,29.85,NE,45,4.0,4.0,100,0.00,,,0.08,VWS V14.01,2013-02-16 16:44:00,
2013-02-16 11:49:00,36.1,36.1,29.85,NNE,22,2.5,2.5,100,0.00,,,0.08,VWS V14.01,2013-02-16 16:49:00,
2013-02-16 11:54:00,36.1,36.1,29.85,NNE,22,3.8,3.8,100,0.00,,,0.08,VWS V14.01,2013-02-16 16:54:00,
2013-02-16 11:59:00,36.1,36.1,29.85,North,0,3.1,3.1,100,0.00,,,0.08,VWS V14.01,2013-02-16 16:59:00,
2013-02-16 12:04:00,36.3,36.3,29.85,NNE,22,3.6,3.6,100,0.00,,,0.08,VWS V14.01,2013-02-16 17:04:00,
2013-02-16 12:10:00,36.3,36.3,29.85,NNE,22,3.8,3.8,100,0.00,,,0.08,VWS V14.01,2013-02-16 17:10:00,
2013-02-16 12:15:00,36.9,36.9,29.85,North,0,4.0,4.0,100,0.00,,,0.08,VWS V14.01,2013-02-16 17:15:00,
2013-02-16 12:20:00,36.7,36.7,29.85,NNE,22,2.9,2.9,100,0.00,,,0.08,VWS V14.01,2013-02-16 17:20:00,
2013-02-16 12:24:00,36.7,36.7,29.82,NNE,22,3.4,3.4,100,0.00,,,0.08,VWS V14.01,2013-02-16 17:24:00,
2013-02-16 12:30:00,36.7,36.7,29.82,North,0,4.7,4.7,100,0.00,,,0.08,VWS V14.01,2013-02-16 17:30:00,
2013-02-16 12:35:00,36.9,36.9,29.82,North,0,2.7,2.7,100,0.00,,,0.08,VWS V14.01,2013-02-16 17:35:00,
2013-02-16 12:40:00,36.9,36.9,29.82,NNW,338,2.5,2.5,100,0.00,,,0.08,VWS V14.01,2013-02-16 17:40:00,
2013-02-16 12:45:00,36.9,36.9,29.82,North,0,3.6,3.6,100,0.00,,,0.08,VWS V14.01,2013-02-16 17:45:00,
2013-02-16 12:50:00,36.7,36.7,29.82,NNE,22,4.0,4.0,100,0.00,,,0.08,VWS V14.01,2013-02-16 17:50:00,
2013-02-16 12:55:00,36.7,36.7,29.79,ENE,68,2.5,2.5,100,0.00,,,0.08,VWS V14.01,2013-02-16 17:55:00,
2013-02-16 13:00:00,36.9,36.9,29.79,NNW,338,1.1,1.1,100,0.00,,,0.08,VWS V14.01,2013-02-16 18:00:00,
2013-02-16 13:05:00,36.9,36.9,29.79,NNW,338,1.1,1.1,100,0.00,,,0.08,VWS V14.01,2013-02-16 18:05:00,
2013-02-16 13:10:00,36.9,36.9,29.79,NNE,22,2.5,2.5,100,0.00,,,0.08,VWS V14.01,2013-02-16 18:10:00,
2013-02-16 13:15:00,36.9,36.9,29.79,NNE,22,2.5,2.5,100,0.00,,,0.08,VWS V14.01,2013-02-16 18:15:00,
2013-02-16 13:20:00,36.9,36.9,29.79,NNE,22,2.5,2.5,100,0.00,,,0.08,VWS V14.01,2013-02-16 18:20:00,
2013-02-16 13:25:00,36.9,36.9,29.79,NE,45,2.7,2.7,100,0.00,,,0.08,VWS V14.01,2013-02-16 18:25:00,
2013-02-16 13:30:00,37.0,37.0,29.79,NNE,22,1.1,1.1,100,0.00,,,0.08,VWS V14.01,2013-02-16 18:30:00,
2013-02-16 13:35:00,37.0,37.0,29.79,NNE,22,2.9,2.9,100,0.00,,,0.08,VWS V14.01,2013-02-16 18:35:00,
2013-02-16 13:41:00,36.9,36.9,29.79,NE,45,1.6,1.6,100,0.00,,,0.08,VWS V14.01,2013-02-16 18:41:00,
2013-02-16 13:46:00,37.0,37.0,29.79,ENE,68,4.0,4.0,100,0.00,,OVC015,0.08,VWS V14.01,2013-02-16 18:46:00,
2013-02-16 13:51:00,36.9,36.9,29.76,NNE,22,3.1,3.1,100,0.00,,OVC015,0.08,VWS V14.01,2013-02-16 18:51:00,
2013-02-16 13:56:00,37.0,37.0,29.76,NNW,338,2.7,2.7,100,0.00,,OVC015,0.08,VWS V14.01,2013-02-16 18:56:00,
2013-02-16 14:01:00,37.2,37.2,29.76,NNE,22,2.7,2.7,100,0.00,,OVC015,0.08,VWS V14.01,2013-02-16 19:01:00,
2013-02-16 14:06:00,37.2,37.2,29.76,NNE,22,2.0,2.0,100,0.00,,OVC015,0.08,VWS V14.01,2013-02-16 19:06:00,
2013-02-16 14:11:00,37.2,37.2,29.76,WNW,292,1.6,1.6,100,0.00,,OVC015,0.08,VWS V14.01,2013-02-16 19:11:00,
2013-02-16 14:16:00,37.4,37.4,29.76,NNW,338,1.1,1.1,100,0.00,,-RA,0.08,VWS V14.01,2013-02-16 19:16:00,
2013-02-16 14:21:00,37.2,37.2,29.76,WNW,292,2.9,2.9,100,0.00,,-RA,0.08,VWS V14.01,2013-02-16 19:21:00,
2013-02-16 14:26:00,37.2,37.0,29.76,NW,315,1.3,1.3,99,0.00,,-RA,0.08,VWS V14.01,2013-02-16 19:26:00,
2013-02-16 14:31:00,37.2,37.2,29.76,NNE,22,3.4,3.4,100,0.00,,-RA,0.08,VWS V14.01,2013-02-16 19:31:00,
2013-02-16 14:36:00,37.2,37.0,29.76,NNW,338,1.3,1.3,99,0.00,,OVC019,0.08,VWS V14.01,2013-02-16 19:36:00,
2013-02-16 14:41:00,37.2,37.0,29.76,NNW,338,1.6,1.6,99,0.00,,OVC019,0.08,VWS V14.01,2013-02-16 19:41:00,
2013-02-16 14:46:00,37.2,37.0,29.76,North,0,1.1,1.1,99,0.00,,OVC019,0.08,VWS V14.01,2013-02-16 19:46:00,
2013-02-16 14:51:00,37.4,36.9,29.76,NNW,338,1.3,1.3,98,0.00,,OVC019,0.08,VWS V14.01,2013-02-16 19:51:00,
2013-02-16 14:56:00,37.4,36.9,29.76,NW,315,0.0,0.0,98,0.00,,OVC019,0.08,VWS V14.01,2013-02-16 19:56:00,
2013-02-16 15:01:00,37.6,37.1,29.76,NNW,338,3.1,3.1,98,0.00,,OVC035,0.08,VWS V14.01,2013-02-16 20:01:00,
2013-02-16 15:07:00,37.6,36.0,29.76,NNE,22,2.5,2.5,94,0.00,,OVC035,0.08,VWS V14.01,2013-02-16 20:07:00,
2013-02-16 15:12:00,37.8,36.7,29.76,NE,45,3.1,3.1,96,0.00,,OVC035,0.08,VWS V14.01,2013-02-16 20:12:00,
2013-02-16 15:17:00,37.6,36.3,29.76,NE,45,4.0,4.0,95,0.00,,OVC035,0.08,VWS V14.01,2013-02-16 20:17:00,
2013-02-16 15:22:00,37.6,36.0,29.74,NE,45,4.9,4.9,94,0.00,,OVC035,0.08,VWS V14.01,2013-02-16 20:22:00,
2013-02-16 15:27:00,37.6,35.7,29.74,NE,45,2.7,2.7,93,0.00,,OVC035,0.08,VWS V14.01,2013-02-16 20:27:00,
2013-02-16 15:32:00,37.4,35.3,29.74,NE,45,3.8,3.8,92,0.00,,OVC035,0.08,VWS V14.01,2013-02-16 20:32:00,
2013-02-16 15:37:00,37.4,35.0,29.74,North,0,2.5,2.5,91,0.00,,OVC035,0.08,VWS V14.01,2013-02-16 20:37:00,
2013-02-16 15:42:00,37.6,35.2,29.74,NE,45,3.1,3.1,91,0.00,,OVC039,0.08,VWS V14.01,2013-02-16 20:42:00,
2013-02-16 15:47:00,37.8,35.1,29.74,NE,45,6.0,6.0,90,0.00,,OVC039,0.08,VWS V14.01,2013-02-16 20:47:00,
2013-02-16 15:52:00,37.9,35.0,29.74,North,0,3.8,3.8,89,0.00,,OVC039,0.08,VWS V14.01,2013-02-16 20:52:00,
2013-02-16 15:57:00,38.1,34.9,29.74,ENE,68,5.4,5.4,88,0.00,,OVC039,0.08,VWS V14.01,2013-02-16 20:57:00,
2013-02-16 16:02:00,37.9,34.4,29.74,NNE,22,2.0,2.0,87,0.00,,OVC039,0.08,VWS V14.01,2013-02-16 21:02:00,
2013-02-16 16:07:00,37.9,34.1,29.74,NNE,22,2.5,2.5,86,0.00,,OVC039,0.08,VWS V14.01,2013-02-16 21:07:00,
2013-02-16 16:12:00,37.9,33.8,29.74,NNE,22,2.9,2.9,85,0.00,,OVC039,0.08,VWS V14.01,2013-02-16 21:12:00,
2013-02-16 16:17:00,37.9,33.5,29.74,NNE,22,4.7,4.7,84,0.00,,OVC039,0.08,VWS V14.01,2013-02-16 21:17:00,
2013-02-16 16:22:00,37.9,33.2,29.74,NE,45,4.0,4.0,83,0.00,,OVC039,0.08,VWS V14.01,2013-02-16 21:22:00,
2013-02-16 16:28:00,37.9,33.2,29.74,NNE,22,5.4,5.4,83,0.00,,OVC039,0.08,VWS V14.01,2013-02-16 21:28:00,
2013-02-16 16:33:00,37.6,32.9,29.74,NE,45,5.8,5.8,83,0.00,,OVC039,0.08,VWS V14.01,2013-02-16 21:33:00,
2013-02-16 16:38:00,37.4,32.7,29.76,NNE,22,4.3,4.3,83,0.00,,OVC055,0.08,VWS V14.01,2013-02-16 21:38:00,
2013-02-16 16:43:00,37.2,32.5,29.76,NNE,22,6.0,6.0,83,0.00,,OVC055,0.08,VWS V14.01,2013-02-16 21:43:00,
2013-02-16 16:48:00,37.2,32.5,29.76,NNE,22,4.3,4.3,83,0.00,,OVC055,0.08,VWS V14.01,2013-02-16 21:48:00,
2013-02-16 16:53:00,37.0,32.4,29.74,NE,45,2.7,2.7,83,0.00,,OVC055,0.08,VWS V14.01,2013-02-16 21:53:00,
2013-02-16 16:58:00,37.0,32.4,29.74,NNE,22,5.4,5.4,83,0.00,,OVC045,0.08,VWS V14.01,2013-02-16 21:58:00,
2013-02-16 17:03:00,37.0,32.4,29.74,NNE,22,2.9,2.9,83,0.00,,OVC045,0.08,VWS V14.01,2013-02-16 22:03:00,
2013-02-16 17:08:00,37.0,32.4,29.74,NNE,22,2.7,2.7,83,0.00,,OVC055,0.08,VWS V14.01,2013-02-16 22:08:00,
2013-02-16 17:13:00,37.0,32.4,29.74,NNE,22,2.7,2.7,83,0.00,,OVC055,0.08,VWS V14.01,2013-02-16 22:13:00,
2013-02-16 17:18:00,37.0,32.4,29.74,NNE,22,2.7,2.7,83,0.00,,OVC055,0.08,VWS V14.01,2013-02-16 22:18:00,
2013-02-16 17:23:00,37.0,32.4,29.74,NNE,22,3.1,3.1,83,0.00,,OVC055,0.08,VWS V14.01,2013-02-16 22:23:00,
2013-02-16 17:28:00,37.0,32.4,29.74,NNE,22,2.9,2.9,83,0.00,,OVC055,0.08,VWS V14.01,2013-02-16 22:28:00,
2013-02-16 17:33:00,36.9,32.5,29.74,NNE,22,2.9,2.9,84,0.00,,OVC055,0.08,VWS V14.01,2013-02-16 22:33:00,
2013-02-16 17:38:00,36.9,32.5,29.74,NW,315,3.6,3.6,84,0.00,,OVC055,0.08,VWS V14.01,2013-02-16 22:38:00,
2013-02-16 17:43:00,36.7,32.3,29.74,North,0,3.4,3.4,84,0.00,,,0.08,VWS V14.01,2013-02-16 22:43:00,
2013-02-16 17:49:00,36.3,32.0,29.74,NNW,338,5.6,5.6,84,0.00,,,0.08,VWS V14.01,2013-02-16 22:49:00,
2013-02-16 17:54:00,33.6,29.6,29.79,North,0,2.7,2.7,85,0.00,,,0.08,VWS V14.01,2013-02-16 22:54:00,
2013-02-16 17:59:00,32.9,30.6,29.79,North,0,8.1,8.1,91,0.00,,,0.08,VWS V14.01,2013-02-16 22:59:00,
2013-02-16 18:04:00,32.7,30.9,29.79,NNW,338,9.8,9.8,93,0.00,,,0.08,VWS V14.01,2013-02-16 23:04:00,
2013-02-16 18:09:00,32.5,31.5,29.76,North,0,3.6,3.6,96,0.00,,,0.08,VWS V14.01,2013-02-16 23:09:00,
2013-02-16 18:14:00,32.5,32.3,29.76,North,0,3.1,3.1,99,0.00,,,0.08,VWS V14.01,2013-02-16 23:14:00,
2013-02-16 18:19:00,32.5,32.5,29.76,NNW,338,3.1,3.1,100,0.00,,,0.08,VWS V14.01,2013-02-16 23:19:00,
2013-02-16 18:24:00,32.5,32.5,29.79,NNW,338,4.3,4.3,100,0.00,,,0.08,VWS V14.01,2013-02-16 23:24:00,
2013-02-16 18:29:00,32.5,32.5,29.79,NNW,338,4.3,4.3,100,0.00,,,0.08,VWS V14.01,2013-02-16 23:29:00,
2013-02-16 18:34:00,32.5,32.5,29.79,North,0,2.5,2.5,100,0.00,,,0.08,VWS V14.01,2013-02-16 23:34:00,
2013-02-16 18:39:00,32.5,32.5,29.79,WNW,292,5.6,5.6,100,0.00,,,0.08,VWS V14.01,2013-02-16 23:39:00,
2013-02-16 18:44:00,32.5,32.5,29.79,North,0,4.9,4.9,100,0.00,,,0.08,VWS V14.01,2013-02-16 23:44:00,
2013-02-16 18:49:00,32.5,32.5,29.79,NW,315,2.2,2.2,100,0.00,,,0.08,VWS V14.01,2013-02-16 23:49:00,
2013-02-16 18:54:00,32.5,32.5,29.79,North,0,1.6,1.6,100,0.00,,,0.08,VWS V14.01,2013-02-16 23:54:00,
2013-02-16 18:59:00,32.5,32.5,29.79,NNW,338,1.6,1.6,100,0.00,,,0.08,VWS V14.01,2013-02-16 23:59:00,
2013-02-16 19:04:00,32.5,32.5,29.79,North,0,2.7,2.7,100,0.00,,,0.08,VWS V14.01,2013-02-17 00:04:00,
2013-02-16 19:09:00,32.5,32.5,29.82,North,0,1.6,1.6,100,0.00,,,0.08,VWS V14.01,2013-02-17 00:09:00,
2013-02-16 19:14:00,32.5,32.5,29.82,NW,315,1.3,1.3,100,0.00,,,0.08,VWS V14.01,2013-02-17 00:14:00,
2013-02-16 19:19:00,32.4,32.4,29.82,North,0,2.5,2.5,100,0.00,,,0.08,VWS V14.01,2013-02-17 00:19:00,
2013-02-16 19:24:00,32.4,32.4,29.82,WNW,292,5.6,5.6,100,0.00,,,0.08,VWS V14.01,2013-02-17 00:24:00,
2013-02-16 19:29:00,32.4,32.4,29.82,WNW,292,0.9,0.9,100,0.00,,,0.08,VWS V14.01,2013-02-17 00:29:00,
2013-02-16 19:34:00,32.4,32.4,29.82,North,0,2.2,2.2,100,0.00,,,0.08,VWS V14.01,2013-02-17 00:34:00,
2013-02-16 19:39:00,32.2,32.2,29.82,NNW,338,2.9,2.9,100,0.00,,,0.08,VWS V14.01,2013-02-17 00:39:00,
2013-02-16 19:44:00,32.0,32.0,29.82,NNW,338,3.4,3.4,100,0.00,,,0.08,VWS V14.01,2013-02-17 00:44:00,
2013-02-16 19:49:00,32.2,32.2,29.82,NNW,338,3.4,3.4,100,0.00,,,0.08,VWS V14.01,2013-02-17 00:49:00,
2013-02-16 19:54:00,32.2,32.2,29.82,West,270,4.0,4.0,100,0.00,,,0.08,VWS V14.01,2013-02-17 00:54:00,
2013-02-16 19:59:00,31.6,31.6,29.82,North,0,2.9,2.9,100,0.00,,,0.08,VWS V14.01,2013-02-17 00:59:00,
2013-02-16 20:04:00,31.3,31.3,29.82,NNW,338,4.3,4.3,100,0.00,,,0.08,VWS V14.01,2013-02-17 01:04:00,
2013-02-16 20:09:00,31.1,31.1,29.85,NW,315,2.5,2.5,100,0.00,,,0.08,VWS V14.01,2013-02-17 01:09:00,
2013-02-16 20:14:00,31.1,31.1,29.85,NNW,338,4.0,4.0,100,0.00,,,0.08,VWS V14.01,2013-02-17 01:14:00,
2013-02-16 20:19:00,31.1,31.1,29.85,NW,315,2.2,2.2,100,0.00,,,0.08,VWS V14.01,2013-02-17 01:19:00,
2013-02-16 20:25:00,30.9,30.9,29.85,NW,315,3.4,3.4,100,0.00,,,0.08,VWS V14.01,2013-02-17 01:25:00,
2013-02-16 20:30:00,31.1,31.1,29.85,NNW,338,2.9,2.9,100,0.00,,,0.08,VWS V14.01,2013-02-17 01:30:00,
2013-02-16 20:35:00,30.9,30.9,29.85,WNW,292,3.1,3.1,100,0.00,,,0.08,VWS V14.01,2013-02-17 01:35:00,
2013-02-16 20:40:00,30.9,30.9,29.85,NNE,22,2.0,2.0,100,0.00,,-RA,0.08,VWS V14.01,2013-02-17 01:40:00,
2013-02-16 20:45:00,30.7,30.7,29.85,NNW,338,3.1,3.1,100,0.00,,-RA,0.08,VWS V14.01,2013-02-17 01:45:00,
2013-02-16 20:50:00,30.6,30.6,29.85,NW,315,1.3,1.3,100,0.00,,-RA,0.08,VWS V14.01,2013-02-17 01:50:00,
2013-02-16 20:55:00,30.6,30.6,29.85,NW,315,1.3,1.3,100,0.00,,-RA,0.08,VWS V14.01,2013-02-17 01:55:00,
2013-02-16 21:01:00,30.4,30.4,29.85,NW,315,1.1,1.1,100,0.00,,-RA,0.08,VWS V14.01,2013-02-17 02:01:00,
2013-02-16 21:06:00,30.2,30.2,29.85,NW,315,0.0,0.0,100,0.00,,-RA,0.08,VWS V14.01,2013-02-17 02:06:00,
2013-02-16 21:11:00,30.0,30.0,29.85,NW,315,1.3,1.3,100,0.00,,-RA,0.08,VWS V14.01,2013-02-17 02:11:00,
2013-02-16 21:16:00,30.0,30.0,29.85,NW,315,0.0,0.0,100,0.00,,-RA,0.08,VWS V14.01,2013-02-17 02:16:00,
2013-02-16 21:21:00,29.8,29.8,29.82,NW,315,1.3,1.3,100,0.00,,-RA,0.08,VWS V14.01,2013-02-17 02:21:00,
2013-02-16 21:26:00,29.7,29.7,29.82,NW,315,0.0,0.0,100,0.00,,-RA,0.08,VWS V14.01,2013-02-17 02:26:00,
2013-02-16 21:31:00,29.5,29.5,29.82,NW,315,1.1,1.1,100,0.00,,-RA,0.08,VWS V14.01,2013-02-17 02:31:00,
2013-02-16 21:36:00,29.5,29.5,29.85,NW,315,1.3,1.3,100,0.00,,BKN120,0.08,VWS V14.01,2013-02-17 02:36:00,
2013-02-16 21:41:00,29.3,29.3,29.85,NW,315,1.6,1.6,100,0.00,,BKN120,0.08,VWS V14.01,2013-02-17 02:41:00,
2013-02-16 21:46:00,29.3,29.3,29.85,NW,315,1.6,1.6,100,0.00,,BKN120,0.08,VWS V14.01,2013-02-17 02:46:00,
2013-02-16 21:51:00,29.3,29.3,29.85,NW,315,1.3,1.3,100,0.00,,BKN120,0.08,VWS V14.01,2013-02-17 02:51:00,
2013-02-16 21:56:00,29.3,29.3,29.85,NNW,338,2.9,2.9,100,0.00,,BKN120,0.08,VWS V14.01,2013-02-17 02:56:00,
2013-02-16 22:01:00,29.3,29.3,29.85,NNW,338,2.2,2.2,100,0.00,,BKN120,0.08,VWS V14.01,2013-02-17 03:01:00,
2013-02-16 22:06:00,28.9,28.9,29.88,WNW,292,0.0,0.0,100,0.00,,BKN120,0.08,VWS V14.01,2013-02-17 03:06:00,
2013-02-16 22:11:00,28.9,28.9,29.88,NW,315,1.6,1.6,100,0.00,,BKN120,0.08,VWS V14.01,2013-02-17 03:11:00,
2013-02-16 22:16:00,28.6,28.6,29.88,West,270,3.1,3.1,100,0.00,,BKN120,0.08,VWS V14.01,2013-02-17 03:16:00,
2013-02-16 22:21:00,28.8,28.8,29.88,WNW,292,2.5,2.5,100,0.00,,BKN120,0.08,VWS V14.01,2013-02-17 03:21:00,
2013-02-16 22:26:00,28.4,28.4,29.88,NNW,338,1.1,1.1,100,0.00,,BKN120,0.08,VWS V14.01,2013-02-17 03:26:00,
2013-02-16 22:31:00,28.4,28.4,29.88,WNW,292,2.5,2.5,100,0.00,,BKN120,0.08,VWS V14.01,2013-02-17 03:31:00,
2013-02-16 22:36:00,28.2,28.2,29.88,WNW,292,1.1,1.1,100,0.00,,FEW120,0.08,VWS V14.01,2013-02-17 03:36:00,
2013-02-16 22:41:00,28.0,28.0,29.88,NW,315,0.0,0.0,100,0.00,,FEW120,0.08,VWS V14.01,2013-02-17 03:41:00,
2013-02-16 22:46:00,28.2,28.2,29.88,West,270,2.0,2.0,100,0.00,,FEW120,0.08,VWS V14.01,2013-02-17 03:46:00,
2013-02-16 22:51:00,28.2,28.2,29.88,West,270,1.1,1.1,100,0.00,,FEW120,0.08,VWS V14.01,2013-02-17 03:51:00,
2013-02-16 22:56:00,27.9,27.9,29.88,West,270,2.5,2.5,100,0.00,,FEW120,0.08,VWS V14.01,2013-02-17 03:56:00,
2013-02-16 23:01:00,27.5,27.5,29.88,WNW,292,1.3,1.3,100,0.00,,FEW120,0.08,VWS V14.01,2013-02-17 04:01:00,
2013-02-16 23:06:00,27.7,27.7,29.88,NNW,338,2.2,2.2,100,0.00,,FEW120,0.08,VWS V14.01,2013-02-17 04:06:00,
2013-02-16 23:11:00,27.7,27.7,29.88,NNW,338,1.6,1.6,100,0.00,,FEW120,0.08,VWS V14.01,2013-02-17 04:11:00,
2013-02-16 23:16:00,27.5,27.0,29.88,WNW,292,1.3,1.3,98,0.00,,FEW120,0.08,VWS V14.01,2013-02-17 04:16:00,
2013-02-16 23:22:00,27.3,26.6,29.88,NW,315,1.6,1.6,97,0.00,,FEW120,0.08,VWS V14.01,2013-02-17 04:22:00,
2013-02-16 23:27:00,27.0,26.2,29.88,NW,315,1.3,1.3,97,0.00,,FEW120,0.08,VWS V14.01,2013-02-17 04:27:00,
2013-02-16 23:32:00,27.1,25.9,29.88,NNW,338,1.3,1.3,95,0.00,,CLR,0.08,VWS V14.01,2013-02-17 04:32:00,
2013-02-16 23:37:00,27.1,25.6,29.88,NW,315,2.0,2.0,94,0.00,,CLR,0.08,VWS V14.01,2013-02-17 04:37:00,
2013-02-16 23:42:00,27.0,25.2,29.88,NNW,338,1.1,1.1,93,0.00,,CLR,0.08,VWS V14.01,2013-02-17 04:42:00,
2013-02-16 23:47:00,27.0,25.2,29.88,NNW,338,2.0,2.0,93,0.00,,CLR,0.08,VWS V14.01,2013-02-17 04:47:00,
2013-02-16 23:52:00,27.0,25.2,29.91,WNW,292,1.1,1.1,93,0.00,,CLR,0.08,VWS V14.01,2013-02-17 04:52:00,
2013-02-16 23:57:00,26.8,25.0,29.91,NNW,338,2.5,2.5,93,0.00,,CLR,0.08,VWS V14.01,2013-02-17 04:57:00,